[[{"header":{"parameterUnit":"m.s-1","parameterCategory":1,"la1":30.2991,"la2":30.254,"lo1":-89.0895,"lo2":-89.0444,"dy":0.0017,"dx":0.0017,"nx":28,"ny":28,"refTime":"2024-08-22T09:00:00:Z","depth":0,"parameterNumber":2,"parameterNumberName":"U-component_of_WINDS"},"data":[0,0,0,0,0,0,0,0,0,0,0,0,0,0,0,0,0,0,0,0,0,0,0,0,0,0,0,0,0,0,0,0,0,0,0,0,0,0,0,0,0,0,0,0,0,0,0,0,0,0,0,0,0,0,0,0,0,0,-0.5783,-0.5782,0,-0.5694,-0.5693,-0.5692,-0.5653,-0.5653,-0.5653,-0.5654,-0.556,-0.5557,-0.5555,0,0,0,0,0,0,0,0,0,0,0,0,0,-0.5918,-0.5916,-0.5783,-0.5782,-0.5781,-0.5694,-0.5693,-0.5691,-0.5653,-0.5653,-0.5653,-0.5654,-0.5561,-0.5558,-0.5555,0,0,0,0,0,0,0,0,0,0,0,0,0,-0.5847,-0.5915,-0.5783,-0.5751,-0.5747,-0.5694,-0.5692,-0.5691,-0.5653,-0.5653,-0.5653,-0.5654,-0.5562,-0.5558,-0.5554,-0.5525,0,0,-0.5542,-0.554,0,0,0,0,0,0,0,0,-0.5851,-0.5842,-0.5757,-0.5753,-0.5749,-0.5685,-0.5706,-0.5635,-0.5653,-0.5689,-0.5654,-0.5654,-0.5601,-0.5594,-0.5577,-0.5521,-0.5517,-0.5542,-0.5539,-0.5538,-0.5537,0,0,0,0,0,0,0,-0.5856,-0.5846,-0.5747,-0.5756,-0.5751,-0.5741,-0.5731,-0.5692,-0.5645,-0.5686,-0.5683,-0.5673,-0.5599,-0.5581,-0.5574,-0.5516,-0.5542,-0.5538,-0.5536,-0.5534,-0.5432,-0.5431,0,0,0,0,0,0,-0.5867,-0.585,-0.575,-0.5745,-0.5802,-0.5738,-0.5727,-0.5705,-0.5645,-0.5636,-0.5673,-0.5671,-0.5587,-0.5579,-0.5571,-0.5533,-0.5538,-0.5534,-0.5532,-0.5432,-0.5432,-0.5431,0,0,0,0,0,0,-0.587,-0.5858,-0.5754,-0.5797,-0.5783,-0.5735,-0.5711,-0.5703,-0.5685,-0.5635,-0.5626,-0.5663,-0.5587,-0.5576,-0.5537,-0.5529,-0.5532,-0.5529,-0.5433,-0.5432,-0.5432,-0.5458,0,0,0,0,0,0,-0.5874,-0.586,-0.5848,-0.5797,-0.5781,-0.5722,-0.5711,-0.5701,-0.5678,-0.5676,-0.5624,-0.5615,-0.5586,-0.5543,-0.5533,-0.5524,-0.5526,-0.5433,-0.5432,-0.5432,-0.5458,-0.5458,-0.5459,0,0,0,0,0,-0.5879,-0.5859,-0.5848,-0.5836,-0.5766,-0.5722,-0.5713,-0.5681,-0.5678,-0.5666,-0.5634,-0.5617,-0.5532,-0.554,-0.5528,-0.5517,-0.5433,-0.5433,-0.5432,-0.5457,-0.5458,-0.5459,0,0,0,0,0,0,-0.591,-0.5851,-0.5839,-0.5802,-0.5767,-0.5716,-0.57,-0.5683,-0.5648,-0.5647,-0.5608,-0.5596,-0.556,-0.5535,-0.5544,-0.5487,-0.5481,-0.5478,-0.5504,-0.5505,-0.5506,-0.5513,-0.5522,0,0,0,0,0,-0.5913,-0.5883,-0.5833,-0.5805,-0.5788,-0.5747,-0.5727,-0.5705,-0.5668,-0.5653,-0.5618,-0.5582,-0.5547,-0.5524,-0.549,-0.5454,-0.5442,-0.5441,-0.5442,-0.5443,-0.544,-0.5419,-0.5418,-0.5429,-0.5429,-0.5429,0,0,-0.5918,-0.5882,-0.5865,-0.581,-0.5781,-0.575,-0.5735,-0.5703,-0.568,-0.5647,-0.5609,-0.5582,-0.5539,-0.5501,-0.5483,-0.5479,-0.5435,-0.5442,-0.5443,-0.544,-0.5419,-0.5418,-0.5417,-0.5428,-0.5428,-0.5428,0,0,-0.5911,-0.5881,-0.5855,-0.5826,-0.5782,-0.5755,-0.5749,-0.57,-0.5681,-0.5642,-0.5617,-0.5588,-0.5529,-0.5499,-0.5477,-0.546,-0.5442,-0.5449,-0.5453,-0.5433,-0.5433,-0.5432,-0.5426,-0.5424,-0.5447,-0.5447,-0.5447,0,-0.5923,-0.5876,-0.5843,-0.5813,-0.5789,-0.576,-0.5732,-0.5706,-0.5653,-0.5637,-0.5633,-0.5559,-0.5527,-0.5483,-0.5479,-0.5461,-0.5453,-0.5455,-0.5436,-0.5434,-0.5433,-0.5427,-0.5424,-0.5448,-0.5448,-0.5448,-0.5448,0,-0.5892,-0.586,-0.5844,-0.5794,-0.5769,-0.574,-0.5703,-0.5681,-0.5662,-0.5635,-0.5595,-0.5557,-0.5514,-0.5502,-0.5482,-0.5454,-0.5453,-0.5443,-0.5437,-0.5434,-0.5427,-0.5424,-0.545,-0.545,-0.5449,-0.5449,0,0,-0.5902,-0.5835,-0.583,-0.5807,-0.5757,-0.5731,-0.5701,-0.566,-0.5642,-0.5607,-0.558,-0.5531,-0.5522,-0.5496,-0.5473,-0.5456,-0.5445,-0.5448,-0.5446,-0.5448,-0.5412,-0.5419,-0.5417,-0.5433,-0.5433,-0.5432,-0.5415,0,-0.5889,-0.5834,-0.5804,-0.5762,-0.5732,-0.5704,-0.5678,-0.5644,-0.5618,-0.5588,-0.556,-0.5526,-0.5516,-0.55,-0.5482,-0.545,-0.5437,-0.5451,-0.5408,-0.5407,-0.5419,-0.5414,-0.5422,-0.5408,-0.5412,-0.5412,-0.5412,0,-0.5866,-0.5831,-0.5787,-0.574,-0.5727,-0.5704,-0.5664,-0.5636,-0.5597,-0.5579,-0.5551,-0.5528,-0.5495,-0.5492,-0.5446,-0.5456,-0.5436,-0.5418,-0.5417,-0.5411,-0.5409,-0.5408,-0.5402,-0.54,-0.5407,-0.5408,-0.5408,0,-0.5878,-0.582,-0.5786,-0.5768,-0.5713,-0.5697,-0.5673,-0.5635,-0.5612,-0.5577,-0.5562,-0.5523,-0.5502,-0.5472,-0.544,-0.544,-0.5396,-0.539,-0.538,-0.5381,-0.5372,-0.5373,-0.5363,-0.536,-0.536,-0.536,-0.536,0,-0.5866,-0.5839,-0.5791,-0.577,-0.574,-0.5705,-0.5676,-0.565,-0.5616,-0.5589,-0.5562,-0.5537,-0.5496,-0.5466,-0.544,-0.5405,-0.5396,-0.538,-0.5374,-0.5383,-0.5385,-0.5369,-0.5369,-0.536,-0.536,-0.536,-0.536,0,-0.5874,-0.584,-0.5801,-0.5753,-0.574,-0.572,-0.5678,-0.5656,-0.5629,-0.5596,-0.5586,-0.5543,-0.5507,-0.5472,-0.5422,-0.5405,-0.537,-0.5362,-0.5384,-0.538,-0.5372,-0.5373,-0.5352,-0.5347,-0.5348,-0.5348,-0.5348,0,-0.5868,-0.5847,-0.5797,-0.5777,-0.5755,-0.5723,-0.57,-0.5666,-0.5643,-0.5597,-0.5581,-0.5542,-0.551,-0.5452,-0.5417,-0.5379,-0.5369,-0.5364,-0.5363,-0.5373,-0.5369,-0.537,-0.5368,-0.5365,-0.5365,-0.5365,-0.5365,0,-0.5862,-0.5847,-0.5815,-0.5777,-0.5751,-0.572,-0.5687,-0.5673,-0.5632,-0.5607,-0.557,-0.5545,-0.5495,-0.5457,-0.5415,-0.539,-0.537,-0.5366,-0.5362,-0.537,-0.5384,-0.5376,-0.5386,-0.5366,-0.5366,-0.5366,-0.5366,-0.5366,-0.5863,-0.5843,-0.5805,-0.577,-0.5743,-0.5713,-0.5691,-0.5661,-0.563,-0.5587,-0.5568,-0.5531,-0.5492,-0.5434,-0.5409,-0.5379,-0.5374,-0.5368,-0.5366,-0.5365,-0.5367,-0.5389,-0.5371,-0.5371,-0.5371,-0.5371,-0.5371,0,-0.5855,-0.583,-0.5798,-0.5754,-0.5727,-0.5713,-0.5676,-0.5654,-0.5622,-0.5588,-0.5556,-0.5514,-0.5477,-0.5439,-0.54,-0.5383,-0.5373,-0.5373,-0.5374,-0.5369,-0.5374,-0.5381,-0.5382,-0.5382,-0.5382,-0.5382,-0.5382,-0.5382,-0.5848,-0.5814,-0.5795,-0.5747,-0.5721,-0.5684,-0.5664,-0.5637,-0.561,-0.5564,-0.5533,-0.5509,-0.5473,-0.5431,-0.5397,-0.5386,-0.5373,-0.5376,-0.5364,-0.5369,-0.5368,-0.5368,-0.5375,-0.5374,-0.5374,-0.5361,-0.5361,-0.5361]},{"header":{"parameterUnit":"m.s-1","parameterCategory":1,"la1":30.2991,"la2":30.254,"lo1":-89.0895,"lo2":-89.0444,"dy":0.0017,"dx":0.0017,"nx":28,"ny":28,"refTime":"2024-08-22T09:00:00:Z","depth":0,"parameterNumber":3,"parameterNumberName":"V-component_of_WINDS"},"data":[0,0,0,0,0,0,0,0,0,0,0,0,0,0,0,0,0,0,0,0,0,0,0,0,0,0,0,0,0,0,0,0,0,0,0,0,0,0,0,0,0,0,0,0,0,0,0,0,0,0,0,0,0,0,0,0,0,0,1.2276,1.2275,0,1.2211,1.2211,1.221,1.2092,1.2089,1.2087,1.2085,1.2022,1.2022,1.2023,0,0,0,0,0,0,0,0,0,0,0,0,0,1.23,1.23,1.2276,1.2275,1.2274,1.2212,1.2211,1.221,1.2092,1.2089,1.2086,1.2084,1.2022,1.2022,1.2023,0,0,0,0,0,0,0,0,0,0,0,0,0,1.2268,1.23,1.2276,1.2208,1.2201,1.2212,1.2211,1.221,1.2093,1.2089,1.2086,1.2083,1.2021,1.2022,1.2023,1.2095,0,0,1.2025,1.2025,0,0,0,0,0,0,0,0,1.227,1.2267,1.2219,1.2213,1.2205,1.2156,1.2196,1.2171,1.2093,1.2134,1.2085,1.2081,1.2069,1.2066,1.2061,1.2092,1.209,1.2025,1.2025,1.2026,1.2026,0,0,0,0,0,0,0,1.2272,1.2269,1.2251,1.2218,1.221,1.2181,1.2173,1.2191,1.2122,1.213,1.2121,1.2115,1.2065,1.2061,1.2059,1.2089,1.2025,1.2025,1.2026,1.2026,1.2173,1.2176,0,0,0,0,0,0,1.2284,1.2272,1.2253,1.2249,1.223,1.2184,1.2174,1.2175,1.2121,1.211,1.2118,1.211,1.2062,1.2058,1.2056,1.2134,1.2026,1.2026,1.2027,1.217,1.2174,1.2178,0,0,0,0,0,0,1.2285,1.2284,1.2255,1.2258,1.2252,1.2187,1.2189,1.2176,1.2171,1.2112,1.21,1.2126,1.2059,1.2055,1.2086,1.2131,1.2026,1.2027,1.2166,1.2171,1.2176,1.2294,0,0,0,0,0,0,1.2286,1.2285,1.2311,1.2259,1.2252,1.2285,1.2192,1.2177,1.2173,1.2161,1.2117,1.2106,1.2056,1.2085,1.2086,1.213,1.2028,1.2161,1.2168,1.2174,1.2286,1.2302,1.2317,0,0,0,0,0,1.2288,1.2348,1.2313,1.2311,1.2284,1.2288,1.2284,1.2224,1.2177,1.2203,1.2164,1.2107,1.2127,1.2089,1.209,1.2134,1.2158,1.2166,1.2174,1.2278,1.2299,1.2317,0,0,0,0,0,0,1.2408,1.234,1.23,1.2346,1.2323,1.2268,1.2299,1.2249,1.224,1.223,1.2157,1.2148,1.2187,1.2164,1.2124,1.22,1.2133,1.2142,1.2213,1.2232,1.2247,1.225,1.2028,0,0,0,0,0,1.244,1.2448,1.2389,1.2435,1.2425,1.2365,1.2364,1.232,1.2294,1.2284,1.2248,1.2226,1.2227,1.2229,1.2227,1.2283,1.227,1.2314,1.233,1.2343,1.235,1.2375,1.2392,1.2204,1.2203,1.2203,0,0,1.2505,1.2469,1.2479,1.2458,1.2435,1.2445,1.2357,1.2372,1.2379,1.2287,1.2311,1.2285,1.2256,1.2298,1.2316,1.228,1.2399,1.2353,1.2364,1.2363,1.2385,1.2403,1.2418,1.2209,1.2208,1.2207,0,0,1.2629,1.2604,1.2637,1.2617,1.2583,1.2542,1.2551,1.2503,1.2481,1.2505,1.2435,1.2443,1.2447,1.2427,1.2418,1.2535,1.2481,1.2537,1.2617,1.2643,1.2658,1.267,1.2708,1.2723,1.2545,1.2545,1.2545,0,1.2715,1.2726,1.2662,1.268,1.2672,1.2589,1.2622,1.2605,1.2574,1.257,1.2532,1.2532,1.2507,1.2543,1.2571,1.2568,1.2574,1.2539,1.2661,1.2673,1.2684,1.2719,1.2734,1.2552,1.2551,1.255,1.255,0,1.2831,1.2841,1.2872,1.2841,1.2837,1.2864,1.2803,1.2808,1.2765,1.2728,1.2753,1.272,1.2707,1.2714,1.2673,1.2743,1.2722,1.2674,1.2604,1.2709,1.2741,1.2755,1.2561,1.2559,1.2557,1.2555,0,0,1.3026,1.2959,1.2972,1.2955,1.2913,1.2919,1.2942,1.2929,1.2932,1.2914,1.2929,1.2935,1.2888,1.2878,1.2835,1.2858,1.2948,1.2806,1.2804,1.283,1.302,1.3054,1.3071,1.2914,1.2916,1.2918,1.3021,0,1.3137,1.317,1.3112,1.3158,1.3165,1.3087,1.3106,1.3082,1.3049,1.3051,1.3015,1.3017,1.2959,1.2951,1.2971,1.2933,1.2985,1.2926,1.2926,1.2927,1.2931,1.3088,1.3124,1.3223,1.3034,1.3036,1.3037,0,1.327,1.3256,1.3303,1.3255,1.3256,1.3274,1.3256,1.3259,1.3231,1.3205,1.3194,1.3142,1.316,1.3097,1.312,1.3081,1.3078,1.306,1.3062,1.3057,1.2986,1.3083,1.3253,1.3266,1.3057,1.3056,1.3054,0,1.3403,1.3396,1.3422,1.3411,1.3358,1.3372,1.3351,1.3319,1.3314,1.33,1.3296,1.3286,1.3279,1.3272,1.3218,1.3177,1.3247,1.3179,1.3224,1.3226,1.3239,1.3239,1.3407,1.3245,1.3245,1.3245,1.3245,0,1.353,1.3561,1.348,1.3496,1.3527,1.3463,1.3496,1.3467,1.3439,1.3447,1.3382,1.3391,1.3322,1.3324,1.3283,1.3306,1.3305,1.3284,1.3272,1.3287,1.3289,1.3282,1.3272,1.3249,1.3248,1.3247,1.3246,0,1.3682,1.3629,1.3651,1.3599,1.3587,1.3612,1.3567,1.3579,1.3543,1.3554,1.3553,1.3496,1.3494,1.3441,1.343,1.3402,1.3442,1.342,1.3451,1.3442,1.3488,1.3483,1.3655,1.3673,1.3504,1.3505,1.3507,0,1.3764,1.3785,1.3735,1.3735,1.3716,1.3718,1.3712,1.3651,1.3648,1.3616,1.3632,1.3626,1.3616,1.3618,1.3575,1.3566,1.354,1.3601,1.3538,1.3552,1.3536,1.3534,1.3534,1.3613,1.3615,1.3617,1.3619,0,1.3915,1.3888,1.3881,1.3867,1.3861,1.3847,1.3829,1.3833,1.3765,1.3765,1.3762,1.3756,1.3743,1.3736,1.3719,1.3697,1.3646,1.3639,1.3648,1.3662,1.3678,1.3666,1.3482,1.3635,1.3633,1.3632,1.3631,1.363,1.4031,1.4045,1.4011,1.4006,1.3986,1.397,1.3977,1.3942,1.3938,1.3921,1.3886,1.3889,1.3859,1.383,1.3813,1.3814,1.3783,1.3797,1.38,1.3804,1.3811,1.3681,1.3811,1.3811,1.381,1.381,1.3809,0,1.4174,1.4149,1.4145,1.412,1.4117,1.407,1.4047,1.4047,1.4049,1.4026,1.4018,1.4014,1.4007,1.3965,1.3953,1.3962,1.3938,1.3961,1.3957,1.3952,1.3841,1.3832,1.398,1.398,1.398,1.398,1.398,1.398,1.4248,1.4268,1.4238,1.4247,1.4221,1.4222,1.4212,1.4197,1.4178,1.4176,1.417,1.4142,1.411,1.4096,1.4087,1.4075,1.4072,1.4102,1.4081,1.3977,1.3961,1.3945,1.3936,1.4103,1.4103,1.4191,1.4192,1.4193]}]]